Time,TemperatureF,DewpointF,PressureIn,WindDirection,WindDirectionDegrees,WindSpeedMPH,WindSpeedGustMPH,Humidity,HourlyPrecipIn,Conditions,Clouds,dailyrainin,SoftwareType,DateUTC
2013-03-25 00:02:00,5.4,-1.7,30.74,SE,129,0.0,1.0,72,0.00,,,0.00,meteohub,2013-03-25 07:02:00,
2013-03-25 00:07:00,5.2,-1.8,30.74,SE,129,0.0,1.0,72,0.00,,,0.00,meteohub,2013-03-25 07:07:00,
2013-03-25 00:12:00,4.5,-2.9,30.75,SE,129,0.0,1.0,71,0.00,,,0.00,meteohub,2013-03-25 07:12:00,
2013-03-25 00:17:00,3.9,-3.5,30.75,SE,129,0.0,2.0,71,0.00,,,0.00,meteohub,2013-03-25 07:17:00,
2013-03-25 00:22:00,3.7,-2.9,30.75,SE,129,0.0,2.0,73,0.00,,,0.00,meteohub,2013-03-25 07:22:00,
2013-03-25 00:27:00,3.7,-2.4,30.75,SE,129,0.0,2.0,75,0.00,,,0.00,meteohub,2013-03-25 07:27:00,
2013-03-25 00:32:00,3.7,-2.2,30.75,SE,129,1.0,0.0,76,0.00,,,0.00,meteohub,2013-03-25 07:32:00,
2013-03-25 00:37:00,3.4,-2.6,30.75,SE,129,0.0,2.0,76,0.00,,,0.00,meteohub,2013-03-25 07:37:00,
2013-03-25 00:42:00,3.0,-2.6,30.75,SE,129,0.0,2.0,77,0.00,,,0.00,meteohub,2013-03-25 07:42:00,
2013-03-25 00:47:00,2.8,-2.7,30.75,SE,129,0.0,2.0,77,0.00,,,0.00,meteohub,2013-03-25 07:47:00,
2013-03-25 00:52:00,2.8,-2.7,30.75,SE,129,0.0,1.0,77,0.00,,,0.00,meteohub,2013-03-25 07:52:00,
2013-03-25 00:57:00,2.7,-2.9,30.74,SE,129,0.0,1.0,77,0.00,,,0.00,meteohub,2013-03-25 07:57:00,
2013-03-25 01:02:00,2.7,-2.9,30.75,SE,129,0.0,1.0,77,0.00,,,0.00,meteohub,2013-03-25 08:02:00,
2013-03-25 01:07:00,2.8,-2.7,30.75,SE,129,0.0,2.0,77,0.00,,,0.00,meteohub,2013-03-25 08:07:00,
2013-03-25 01:12:00,2.7,-2.6,30.75,SE,129,0.0,2.0,78,0.00,,,0.00,meteohub,2013-03-25 08:12:00,
2013-03-25 01:22:00,2.7,-3.1,30.75,SE,129,0.0,1.0,76,0.00,,,0.00,meteohub,2013-03-25 08:22:00,
2013-03-25 01:27:00,2.1,-3.6,30.75,SE,129,0.0,1.0,76,0.00,,,0.00,meteohub,2013-03-25 08:27:00,
2013-03-25 01:32:00,1.9,-3.3,30.75,SE,129,1.0,2.0,78,0.00,,,0.00,meteohub,2013-03-25 08:32:00,
2013-03-25 01:42:00,1.8,-2.7,30.75,SE,129,0.0,2.0,81,0.00,,,0.00,meteohub,2013-03-25 08:42:00,
2013-03-25 01:47:00,1.9,-2.7,30.75,SE,129,1.0,2.0,80,0.00,,,0.00,meteohub,2013-03-25 08:47:00,
2013-03-25 01:57:00,1.8,-3.3,30.75,SE,138,0.0,3.0,79,0.00,,,0.00,meteohub,2013-03-25 08:57:00,
2013-03-25 02:02:00,1.8,-2.9,30.75,SE,138,0.0,3.0,80,0.00,,,0.00,meteohub,2013-03-25 09:02:00,
2013-03-25 02:07:00,1.6,-3.1,30.75,SE,138,0.0,3.0,80,0.00,,,0.00,meteohub,2013-03-25 09:07:00,
2013-03-25 02:12:00,1.2,-3.5,30.75,SE,138,0.0,1.0,80,0.00,,,0.00,meteohub,2013-03-25 09:12:00,
2013-03-25 02:17:00,1.2,-3.5,30.75,SE,138,0.0,1.0,80,0.00,,,0.00,meteohub,2013-03-25 09:17:00,
2013-03-25 02:22:00,1.0,-3.6,30.75,SE,138,0.0,0.0,80,0.00,,,0.00,meteohub,2013-03-25 09:22:00,
2013-03-25 02:32:00,0.5,-4.2,30.75,SE,138,0.0,1.0,80,0.00,,,0.00,meteohub,2013-03-25 09:32:00,
2013-03-25 02:37:00,0.3,-4.4,30.75,SE,138,0.0,1.0,80,0.00,,,0.00,meteohub,2013-03-25 09:37:00,
2013-03-25 02:47:00,0.3,-3.8,30.74,SE,138,0.0,1.0,82,0.00,,,0.00,meteohub,2013-03-25 09:47:00,
2013-03-25 02:52:00,0.3,-4.2,30.74,SE,138,0.0,1.0,81,0.00,,,0.00,meteohub,2013-03-25 09:52:00,
2013-03-25 02:57:00,0.3,-4.2,30.74,SE,138,0.0,1.0,81,0.00,,,0.00,meteohub,2013-03-25 09:57:00,
2013-03-25 03:02:00,0.3,-4.4,30.74,SE,138,0.0,1.0,80,0.00,,,0.00,meteohub,2013-03-25 10:02:00,
2013-03-25 03:07:00,0.3,-4.2,30.74,SE,138,0.0,1.0,81,0.00,,,0.00,meteohub,2013-03-25 10:07:00,
2013-03-25 03:12:00,0.1,-4.4,30.74,SE,138,1.0,1.0,81,0.00,,,0.00,meteohub,2013-03-25 10:12:00,
2013-03-25 03:17:00,-0.2,-4.9,30.74,SE,138,0.0,1.0,80,0.00,,,0.00,meteohub,2013-03-25 10:17:00,
2013-03-25 03:22:00,-0.6,-4.7,30.74,SE,138,0.0,1.0,82,0.00,,,0.00,meteohub,2013-03-25 10:22:00,
2013-03-25 03:32:00,-0.8,-4.7,30.74,SE,138,0.0,0.0,83,0.00,,,0.00,meteohub,2013-03-25 10:32:00,
2013-03-25 03:37:00,-0.8,-4.9,30.74,SE,138,0.0,1.0,82,0.00,,,0.00,meteohub,2013-03-25 10:37:00,
2013-03-25 03:42:00,-0.9,-5.1,30.74,SE,138,0.0,1.0,82,0.00,,,0.00,meteohub,2013-03-25 10:42:00,
2013-03-25 03:47:00,-0.9,-4.9,30.74,SE,138,0.0,0.0,83,0.00,,,0.00,meteohub,2013-03-25 10:47:00,
2013-03-25 03:52:00,-0.8,-4.4,30.75,SE,138,0.0,1.0,84,0.00,,,0.00,meteohub,2013-03-25 10:52:00,
2013-03-25 04:07:00,-0.9,-5.4,30.75,SE,138,0.0,1.0,81,0.00,,,0.00,meteohub,2013-03-25 11:07:00,
2013-03-25 04:12:00,-1.3,-6.0,30.76,SE,138,0.0,1.0,80,0.00,,,0.00,meteohub,2013-03-25 11:12:00,
2013-03-25 04:17:00,-1.5,-5.6,30.76,SE,138,0.0,1.0,82,0.00,,,0.00,meteohub,2013-03-25 11:17:00,
2013-03-25 04:27:00,-1.7,-5.6,30.76,SE,138,0.0,1.0,83,0.00,,,0.00,meteohub,2013-03-25 11:27:00,
2013-03-25 04:37:00,-2.0,-6.0,30.76,SE,138,0.0,1.0,83,0.00,,,0.00,meteohub,2013-03-25 11:37:00,
2013-03-25 04:42:00,-1.8,-5.4,30.76,SE,138,0.0,1.0,84,0.00,,,0.00,meteohub,2013-03-25 11:42:00,
2013-03-25 04:47:00,-1.7,-5.3,30.77,SE,138,0.0,0.0,84,0.00,,,0.00,meteohub,2013-03-25 11:47:00,
2013-03-25 04:52:00,-1.7,-5.6,30.77,SE,138,0.0,0.0,83,0.00,,,0.00,meteohub,2013-03-25 11:52:00,
2013-03-25 05:02:00,-1.8,-6.2,30.77,SE,138,0.0,1.0,81,0.00,,,0.00,meteohub,2013-03-25 12:02:00,
2013-03-25 05:12:00,-1.7,-5.6,30.77,SE,138,2.0,2.0,83,0.00,,,0.00,meteohub,2013-03-25 12:12:00,
2013-03-25 05:22:00,-2.2,-6.2,30.77,SE,142,3.0,3.0,83,0.00,,,0.00,meteohub,2013-03-25 12:22:00,
2013-03-25 05:27:00,-2.9,-7.2,30.77,SE,143,1.0,3.0,81,0.00,,,0.00,meteohub,2013-03-25 12:27:00,
2013-03-25 05:37:00,-3.3,-7.1,30.78,SE,143,0.0,3.0,83,0.00,,,0.00,meteohub,2013-03-25 12:37:00,
2013-03-25 05:42:00,-3.3,-6.9,30.77,SE,143,0.0,1.0,84,0.00,,,0.00,meteohub,2013-03-25 12:42:00,
2013-03-25 05:47:00,-3.1,-6.7,30.78,SE,143,0.0,1.0,84,0.00,,,0.00,meteohub,2013-03-25 12:47:00,
2013-03-25 05:52:00,-3.1,-6.7,30.78,SE,143,0.0,1.0,84,0.00,,,0.00,meteohub,2013-03-25 12:52:00,
2013-03-25 05:57:00,-2.9,-6.5,30.78,SE,143,0.0,1.0,84,0.00,,,0.00,meteohub,2013-03-25 12:57:00,
2013-03-25 06:02:00,-2.7,-6.2,30.78,SE,143,0.0,0.0,85,0.00,,,0.00,meteohub,2013-03-25 13:02:00,
2013-03-25 06:07:00,-2.6,-6.0,30.78,SE,143,1.0,1.0,85,0.00,,,0.00,meteohub,2013-03-25 13:07:00,
2013-03-25 06:17:00,-3.3,-7.1,30.79,SE,143,0.0,2.0,83,0.00,,,0.00,meteohub,2013-03-25 13:17:00,
2013-03-25 06:22:00,-3.5,-7.2,30.79,SE,143,0.0,2.0,83,0.00,,,0.00,meteohub,2013-03-25 13:22:00,
2013-03-25 06:27:00,-3.5,-7.1,30.79,SE,143,0.0,1.0,84,0.00,,,0.00,meteohub,2013-03-25 13:27:00,
2013-03-25 06:32:00,-3.5,-7.1,30.79,SE,143,0.0,1.0,84,0.00,,,0.00,meteohub,2013-03-25 13:32:00,
2013-03-25 06:37:00,-3.3,-6.9,30.80,SE,143,0.0,2.0,84,0.00,,,0.00,meteohub,2013-03-25 13:37:00,
2013-03-25 06:42:00,-3.3,-7.1,30.80,SE,143,0.0,2.0,83,0.00,,,0.00,meteohub,2013-03-25 13:42:00,
2013-03-25 06:52:00,-2.7,-6.2,30.80,SE,143,0.0,1.0,85,0.00,,,0.00,meteohub,2013-03-25 13:52:00,
2013-03-25 06:57:00,-2.6,-6.2,30.80,SE,143,0.0,2.0,84,0.00,,,0.00,meteohub,2013-03-25 13:57:00,
2013-03-25 07:07:00,-1.7,-5.1,30.80,SE,143,0.0,2.0,85,0.00,,,0.00,meteohub,2013-03-25 14:07:00,
2013-03-25 07:12:00,-1.3,-4.9,30.80,SE,143,0.0,0.0,84,0.00,,,0.00,meteohub,2013-03-25 14:12:00,
2013-03-25 07:17:00,-0.8,-4.4,30.80,SE,143,0.0,0.0,84,0.00,,,0.00,meteohub,2013-03-25 14:17:00,
2013-03-25 07:27:00,0.1,-3.8,30.81,SE,143,0.0,1.0,83,0.00,,,0.00,meteohub,2013-03-25 14:27:00,
2013-03-25 07:32:00,0.7,-3.5,30.81,SE,143,0.0,1.0,82,0.00,,,0.00,meteohub,2013-03-25 14:32:00,
2013-03-25 07:37:00,1.2,-2.9,30.81,SE,143,1.0,1.0,82,0.00,,,0.00,meteohub,2013-03-25 14:37:00,
2013-03-25 07:42:00,1.9,-2.6,30.81,SE,143,2.0,2.0,81,0.00,,,0.00,meteohub,2013-03-25 14:42:00,
2013-03-25 07:47:00,2.5,-2.6,30.81,SE,143,0.0,2.0,79,0.00,,,0.00,meteohub,2013-03-25 14:47:00,
2013-03-25 07:52:00,3.0,-2.2,30.81,SE,143,0.0,2.0,78,0.00,,,0.00,meteohub,2013-03-25 14:52:00,
2013-03-25 07:57:00,3.7,-1.8,30.81,SE,143,0.0,2.0,77,0.00,,,0.00,meteohub,2013-03-25 14:57:00,
2013-03-25 08:02:00,4.5,-2.0,30.81,SE,143,1.0,2.0,74,0.00,,,0.00,meteohub,2013-03-25 15:02:00,
2013-03-25 08:12:00,5.7,-1.7,30.81,SE,143,2.0,2.0,71,0.00,,,0.00,meteohub,2013-03-25 15:12:00,
2013-03-25 08:22:00,6.1,-0.9,30.81,SE,143,2.0,3.0,72,0.00,,,0.00,meteohub,2013-03-25 15:22:00,
2013-03-25 08:32:00,7.2,0.0,30.81,SE,143,1.0,3.0,72,0.00,,,0.00,meteohub,2013-03-25 15:32:00,
2013-03-25 08:37:00,7.7,0.3,30.80,SE,143,1.0,3.0,71,0.00,,,0.00,meteohub,2013-03-25 15:37:00,
2013-03-25 08:47:00,8.8,-0.2,30.79,SE,143,2.0,3.0,66,0.00,,,0.00,meteohub,2013-03-25 15:47:00,
2013-03-25 08:52:00,9.5,0.1,30.80,SE,143,1.0,3.0,65,0.00,,,0.00,meteohub,2013-03-25 15:52:00,
2013-03-25 08:57:00,10.0,-0.8,30.79,SE,143,1.0,3.0,61,0.00,,,0.00,meteohub,2013-03-25 15:57:00,
2013-03-25 09:02:00,10.6,-0.6,30.79,SE,143,1.0,3.0,60,0.00,,,0.00,meteohub,2013-03-25 16:02:00,
2013-03-25 09:07:00,10.9,0.1,30.79,SE,143,2.0,4.0,61,0.00,,,0.00,meteohub,2013-03-25 16:07:00,
2013-03-25 09:12:00,11.5,0.3,30.79,WNW,298,2.0,4.0,60,0.00,,,0.00,meteohub,2013-03-25 16:12:00,
2013-03-25 09:17:00,11.8,1.0,30.79,WNW,298,2.0,4.0,61,0.00,,,0.00,meteohub,2013-03-25 16:17:00,
2013-03-25 09:27:00,12.6,1.0,30.79,West,281,1.0,4.0,59,0.00,,,0.00,meteohub,2013-03-25 16:27:00,
2013-03-25 09:32:00,13.1,1.0,30.79,West,281,1.0,3.0,58,0.00,,,0.00,meteohub,2013-03-25 16:32:00,
2013-03-25 09:37:00,13.6,1.6,30.79,West,281,1.0,3.0,58,0.00,,,0.00,meteohub,2013-03-25 16:37:00,
2013-03-25 09:42:00,14.4,1.2,30.79,West,281,1.0,3.0,55,0.00,,,0.00,meteohub,2013-03-25 16:42:00,
2013-03-25 09:47:00,15.3,2.3,30.79,West,281,2.0,3.0,56,0.00,,,0.00,meteohub,2013-03-25 16:47:00,
2013-03-25 09:52:00,16.0,2.3,30.79,West,281,2.0,3.0,54,0.00,,,0.00,meteohub,2013-03-25 16:52:00,
2013-03-25 09:57:00,16.3,1.8,30.79,West,281,3.0,3.0,52,0.00,,,0.00,meteohub,2013-03-25 16:57:00,
2013-03-25 10:02:00,17.1,3.2,30.79,West,281,2.0,3.0,54,0.00,,,0.00,meteohub,2013-03-25 17:02:00,
2013-03-25 10:07:00,17.8,2.3,30.79,West,281,1.0,3.0,50,0.00,,,0.00,meteohub,2013-03-25 17:07:00,
2013-03-25 10:12:00,18.1,2.7,30.79,West,264,3.0,3.0,50,0.00,,,0.00,meteohub,2013-03-25 17:12:00,
2013-03-25 10:17:00,18.3,4.1,30.78,WSW,238,3.0,5.0,53,0.00,,,0.00,meteohub,2013-03-25 17:17:00,
2013-03-25 10:22:00,18.9,4.6,30.78,SW,228,2.0,5.0,53,0.00,,,0.00,meteohub,2013-03-25 17:22:00,
2013-03-25 10:32:00,20.1,4.1,30.78,SW,228,0.0,5.0,49,0.00,,,0.00,meteohub,2013-03-25 17:32:00,
2013-03-25 10:37:00,20.8,4.6,30.77,SW,227,2.0,3.0,49,0.00,,,0.00,meteohub,2013-03-25 17:37:00,
2013-03-25 10:47:00,21.6,4.5,30.77,SW,227,5.0,5.0,47,0.00,,,0.00,meteohub,2013-03-25 17:47:00,
2013-03-25 10:52:00,21.9,6.6,30.77,SW,227,3.0,5.0,51,0.00,,,0.00,meteohub,2013-03-25 17:52:00,
2013-03-25 10:57:00,22.3,4.6,30.77,SW,228,2.0,5.0,46,0.00,,,0.00,meteohub,2013-03-25 17:57:00,
2013-03-25 11:02:00,23.0,3.9,30.77,SW,228,1.0,5.0,43,0.00,,,0.00,meteohub,2013-03-25 18:02:00,
2013-03-25 11:12:00,23.7,3.4,30.77,WSW,248,2.0,5.0,41,0.00,,,0.00,meteohub,2013-03-25 18:12:00,
2013-03-25 11:22:00,24.4,1.9,30.76,WSW,237,5.0,7.0,37,0.00,,,0.00,meteohub,2013-03-25 18:22:00,
2013-03-25 11:32:00,25.5,-1.7,30.76,West,273,2.0,9.0,30,0.00,,,0.00,meteohub,2013-03-25 18:32:00,
2013-03-25 11:37:00,25.9,-2.0,30.76,West,264,4.0,9.0,29,0.00,,,0.00,meteohub,2013-03-25 18:37:00,
2013-03-25 11:47:00,26.2,-0.9,30.76,NW,307,7.0,11.0,30,0.00,,,0.00,meteohub,2013-03-25 18:47:00,
2013-03-25 11:52:00,26.2,-4.0,30.76,NW,316,9.0,11.0,26,0.00,,,0.00,meteohub,2013-03-25 18:52:00,
2013-03-25 12:02:00,26.8,0.1,30.76,NW,312,10.0,12.0,31,0.00,,,0.00,meteohub,2013-03-25 19:02:00,
2013-03-25 12:07:00,26.8,-3.5,30.76,NW,321,7.0,12.0,26,0.00,,,0.00,meteohub,2013-03-25 19:07:00,
2013-03-25 12:12:00,26.6,-3.6,30.75,WNW,293,8.0,11.0,26,0.00,,,0.00,meteohub,2013-03-25 19:12:00,
2013-03-25 12:32:00,28.0,-0.2,30.74,WNW,297,7.0,9.0,29,0.00,,,0.00,meteohub,2013-03-25 19:32:00,
2013-03-25 12:37:00,28.2,-1.5,30.74,NW,320,8.0,10.0,27,0.00,,,0.00,meteohub,2013-03-25 19:37:00,
2013-03-25 12:42:00,28.0,-1.7,30.74,NW,304,3.0,10.0,27,0.00,,,0.00,meteohub,2013-03-25 19:42:00,
2013-03-25 12:57:00,28.2,-0.8,30.73,ENE,73,2.0,8.0,28,0.00,,,0.00,meteohub,2013-03-25 19:57:00,
2013-03-25 13:02:00,28.6,-2.7,30.73,WNW,298,6.0,8.0,25,0.00,,,0.00,meteohub,2013-03-25 20:02:00,
2013-03-25 13:07:00,28.2,0.0,30.73,WNW,288,4.0,8.0,29,0.00,,,0.00,meteohub,2013-03-25 20:07:00,
2013-03-25 13:22:00,29.5,1.9,30.72,WSW,247,5.0,7.0,30,0.00,,,0.00,meteohub,2013-03-25 20:22:00,
2013-03-25 13:27:00,29.5,0.3,30.72,South,187,4.0,7.0,28,0.00,,,0.00,meteohub,2013-03-25 20:27:00,
2013-03-25 13:32:00,29.5,-1.1,30.72,WSW,254,4.0,9.0,26,0.00,,,0.00,meteohub,2013-03-25 20:32:00,
2013-03-25 13:37:00,29.8,0.0,30.72,SW,232,4.0,9.0,27,0.00,,,0.00,meteohub,2013-03-25 20:37:00,
2013-03-25 13:42:00,30.0,0.9,30.72,WNW,292,3.0,7.0,28,0.00,,,0.00,meteohub,2013-03-25 20:42:00,
2013-03-25 13:47:00,30.4,-0.4,30.71,WNW,290,2.0,7.0,26,0.00,,,0.00,meteohub,2013-03-25 20:47:00,
2013-03-25 13:52:00,30.7,-0.9,30.71,NNE,19,5.0,7.0,25,0.00,,,0.00,meteohub,2013-03-25 20:52:00,
2013-03-25 13:57:00,31.3,-4.2,30.71,WNW,298,7.0,10.0,21,0.00,,,0.00,meteohub,2013-03-25 20:57:00,
2013-03-25 14:02:00,31.5,-2.0,30.71,NNE,25,4.0,12.0,23,0.00,,,0.00,meteohub,2013-03-25 21:02:00,
2013-03-25 14:07:00,31.6,-4.9,30.71,NW,304,3.0,12.0,20,0.00,,,0.00,meteohub,2013-03-25 21:07:00,
2013-03-25 14:17:00,31.6,-2.0,30.71,NW,314,2.0,12.0,23,0.00,,,0.00,meteohub,2013-03-25 21:17:00,
2013-03-25 14:27:00,31.8,-2.7,30.71,NW,322,8.0,12.0,22,0.00,,,0.00,meteohub,2013-03-25 21:27:00,
2013-03-25 14:32:00,31.8,-3.6,30.71,NW,311,4.0,14.0,21,0.00,,,0.00,meteohub,2013-03-25 21:32:00,
2013-03-25 14:37:00,31.8,-5.8,30.71,WNW,301,9.0,14.0,19,0.00,,,0.00,meteohub,2013-03-25 21:37:00,
2013-03-25 14:47:00,31.3,-3.1,30.71,NNW,339,4.0,14.0,22,0.00,,,0.00,meteohub,2013-03-25 21:47:00,
2013-03-25 14:52:00,31.6,-1.1,30.71,NW,318,5.0,14.0,24,0.00,,,0.00,meteohub,2013-03-25 21:52:00,
2013-03-25 14:57:00,31.8,-2.7,30.71,NW,326,7.0,12.0,22,0.00,,,0.00,meteohub,2013-03-25 21:57:00,
2013-03-25 15:02:00,31.8,-6.9,30.71,NW,324,4.0,12.0,18,0.00,,,0.00,meteohub,2013-03-25 22:02:00,
2013-03-25 15:12:00,32.2,-4.4,30.70,NW,307,8.0,12.0,20,0.00,,,0.00,meteohub,2013-03-25 22:12:00,
2013-03-25 15:27:00,31.8,-6.9,30.70,NW,308,8.0,13.0,18,0.00,,,0.00,meteohub,2013-03-25 22:27:00,
2013-03-25 15:32:00,32.0,-10.5,30.70,NW,321,0.0,13.0,15,0.00,,,0.00,meteohub,2013-03-25 22:32:00,
2013-03-25 15:42:00,32.5,-5.3,30.69,NW,315,6.0,12.0,19,0.00,,,0.00,meteohub,2013-03-25 22:42:00,
2013-03-25 15:47:00,32.2,-7.8,30.69,WNW,294,6.0,12.0,17,0.00,,,0.00,meteohub,2013-03-25 22:47:00,
2013-03-25 15:57:00,32.4,-10.1,30.69,North,355,1.0,11.0,15,0.00,,,0.00,meteohub,2013-03-25 22:57:00,
2013-03-25 16:02:00,32.7,-7.2,30.69,North,350,4.0,10.0,17,0.00,,,0.00,meteohub,2013-03-25 23:02:00,
2013-03-25 16:12:00,32.7,-6.2,30.69,North,5,3.0,8.0,18,0.00,,,0.00,meteohub,2013-03-25 23:12:00,
2013-03-25 16:17:00,32.5,-7.4,30.69,NW,315,3.0,8.0,17,0.00,,,0.00,meteohub,2013-03-25 23:17:00,
2013-03-25 16:27:00,32.7,-7.2,30.69,NW,312,5.0,9.0,17,0.00,,,0.00,meteohub,2013-03-25 23:27:00,
2013-03-25 16:32:00,32.4,-7.6,30.69,NW,325,6.0,9.0,17,0.00,,,0.00,meteohub,2013-03-25 23:32:00,
2013-03-25 16:37:00,32.4,-3.3,30.69,NW,325,7.0,13.0,21,0.00,,,0.00,meteohub,2013-03-25 23:37:00,
2013-03-25 16:42:00,32.5,-4.2,30.69,NW,311,6.0,13.0,20,0.00,,,0.00,meteohub,2013-03-25 23:42:00,
2013-03-25 16:47:00,32.7,-2.9,30.69,WNW,303,5.0,13.0,21,0.00,,,0.00,meteohub,2013-03-25 23:47:00,
2013-03-25 16:57:00,32.7,-2.9,30.69,NW,321,9.0,9.0,21,0.00,,,0.00,meteohub,2013-03-25 23:57:00,
2013-03-25 17:02:00,32.7,-5.1,30.69,NE,41,3.0,11.0,19,0.00,,,0.00,meteohub,2013-03-26 00:02:00,
2013-03-25 17:07:00,32.7,-5.1,30.69,NE,38,5.0,11.0,19,0.00,,,0.00,meteohub,2013-03-26 00:07:00,
2013-03-25 17:12:00,32.7,-5.1,30.69,WNW,291,4.0,11.0,19,0.00,,,0.00,meteohub,2013-03-26 00:12:00,
2013-03-25 17:17:00,32.4,-5.3,30.69,North,9,1.0,9.0,19,0.00,,,0.00,meteohub,2013-03-26 00:17:00,
2013-03-25 17:22:00,32.2,-3.5,30.70,NW,306,3.0,9.0,21,0.00,,,0.00,meteohub,2013-03-26 00:22:00,
2013-03-25 17:27:00,32.2,-3.5,30.70,NW,306,3.0,9.0,21,0.00,,,0.00,meteohub,2013-03-26 00:27:00,
2013-03-25 17:37:00,30.4,-2.9,30.70,WSW,238,3.0,8.0,23,0.00,,,0.00,meteohub,2013-03-26 00:37:00,
2013-03-25 17:47:00,30.6,-3.8,30.70,WSW,251,4.0,5.0,22,0.00,,,0.00,meteohub,2013-03-26 00:47:00,
2013-03-25 17:52:00,29.8,-5.4,30.70,WSW,246,7.0,7.0,21,0.00,,,0.00,meteohub,2013-03-26 00:52:00,
2013-03-25 17:57:00,29.8,-5.4,30.70,WSW,255,4.0,8.0,21,0.00,,,0.00,meteohub,2013-03-26 00:57:00,
2013-03-25 18:02:00,29.7,-4.5,30.70,West,262,3.0,8.0,22,0.00,,,0.00,meteohub,2013-03-26 01:02:00,
2013-03-25 18:07:00,29.3,-4.0,30.70,West,276,3.0,8.0,23,0.00,,,0.00,meteohub,2013-03-26 01:07:00,
2013-03-25 18:12:00,28.9,-3.3,30.70,West,276,0.0,6.0,24,0.00,,,0.00,meteohub,2013-03-26 01:12:00,
2013-03-25 18:17:00,28.8,-1.8,30.70,WNW,300,0.0,4.0,26,0.00,,,0.00,meteohub,2013-03-26 01:17:00,
2013-03-25 18:22:00,28.6,-2.7,30.70,WNW,300,0.0,4.0,25,0.00,,,0.00,meteohub,2013-03-26 01:22:00,
2013-03-25 18:32:00,27.9,-4.4,30.70,NW,306,2.0,2.0,24,0.00,,,0.00,meteohub,2013-03-26 01:32:00,
2013-03-25 18:37:00,27.9,-3.5,30.70,NW,306,0.0,3.0,25,0.00,,,0.00,meteohub,2013-03-26 01:37:00,
2013-03-25 18:42:00,27.3,-1.5,30.70,NW,306,0.0,3.0,28,0.00,,,0.00,meteohub,2013-03-26 01:42:00,
2013-03-25 18:47:00,26.2,0.3,30.70,NW,306,0.0,3.0,32,0.00,,,0.00,meteohub,2013-03-26 01:47:00,
2013-03-25 18:52:00,25.0,1.2,30.71,NW,306,0.0,3.0,35,0.00,,,0.00,meteohub,2013-03-26 01:52:00,
2013-03-25 18:57:00,24.3,0.0,30.71,NW,306,0.0,3.0,34,0.00,,,0.00,meteohub,2013-03-26 01:57:00,
2013-03-25 19:07:00,23.5,3.7,30.72,NW,306,0.0,2.0,42,0.00,,,0.00,meteohub,2013-03-26 02:07:00,
2013-03-25 19:17:00,22.1,3.0,30.71,SSE,165,0.0,4.0,43,0.00,,,0.00,meteohub,2013-03-26 02:17:00,
2013-03-25 19:22:00,21.7,3.2,30.72,SE,136,0.0,4.0,44,0.00,,,0.00,meteohub,2013-03-26 02:22:00,
2013-03-25 19:27:00,21.0,3.0,30.72,SSE,153,1.0,5.0,45,0.00,,,0.00,meteohub,2013-03-26 02:27:00,
2013-03-25 19:37:00,19.9,4.3,30.72,SSE,151,0.0,5.0,50,0.00,,,0.00,meteohub,2013-03-26 02:37:00,
2013-03-25 19:47:00,18.9,3.7,30.72,SSE,154,0.0,4.0,51,0.00,,,0.00,meteohub,2013-03-26 02:47:00,
2013-03-25 19:52:00,18.7,4.5,30.73,SSE,154,1.0,4.0,53,0.00,,,0.00,meteohub,2013-03-26 02:52:00,
2013-03-25 20:02:00,18.5,3.7,30.73,SSE,154,1.0,2.0,52,0.00,,,0.00,meteohub,2013-03-26 03:02:00,
2013-03-25 20:07:00,18.3,4.1,30.74,SSE,154,1.0,3.0,53,0.00,,,0.00,meteohub,2013-03-26 03:07:00,
2013-03-25 20:17:00,18.3,3.2,30.74,SSE,154,0.0,2.0,51,0.00,,,0.00,meteohub,2013-03-26 03:17:00,
2013-03-25 20:22:00,18.1,4.3,30.74,SSE,154,0.0,2.0,54,0.00,,,0.00,meteohub,2013-03-26 03:22:00,
2013-03-25 20:32:00,18.0,3.4,30.74,SSE,154,2.0,2.0,52,0.00,,,0.00,meteohub,2013-03-26 03:32:00,
2013-03-25 20:37:00,17.2,3.9,30.74,SSE,154,0.0,3.0,55,0.00,,,0.00,meteohub,2013-03-26 03:37:00,
2013-03-25 20:52:00,16.2,3.6,30.75,SSE,154,0.0,2.0,57,0.00,,,0.00,meteohub,2013-03-26 03:52:00,
2013-03-25 20:57:00,16.2,3.9,30.75,SSE,154,0.0,2.0,58,0.00,,,0.00,meteohub,2013-03-26 03:57:00,
2013-03-25 21:02:00,15.6,2.3,30.75,SSE,154,0.0,1.0,55,0.00,,,0.00,meteohub,2013-03-26 04:02:00,
2013-03-25 21:07:00,15.4,3.7,30.75,SSE,154,0.0,2.0,59,0.00,,,0.00,meteohub,2013-03-26 04:07:00,
2013-03-25 21:17:00,15.1,3.0,30.75,SSE,154,0.0,2.0,58,0.00,,,0.00,meteohub,2013-03-26 04:17:00,
2013-03-25 21:22:00,14.7,3.4,30.75,SSE,154,0.0,1.0,60,0.00,,,0.00,meteohub,2013-03-26 04:22:00,
2013-03-25 21:27:00,14.7,3.0,30.75,SSE,154,0.0,1.0,59,0.00,,,0.00,meteohub,2013-03-26 04:27:00,
2013-03-25 21:32:00,14.7,3.4,30.75,SSE,154,0.0,1.0,60,0.00,,,0.00,meteohub,2013-03-26 04:32:00,
2013-03-25 21:37:00,14.7,2.7,30.75,SSE,154,2.0,0.0,58,0.00,,,0.00,meteohub,2013-03-26 04:37:00,
2013-03-25 21:42:00,14.5,3.2,30.76,SSE,154,0.0,2.0,60,0.00,,,0.00,meteohub,2013-03-26 04:42:00,
2013-03-25 21:47:00,14.4,4.1,30.76,SSE,154,0.0,2.0,63,0.00,,,0.00,meteohub,2013-03-26 04:47:00,
2013-03-25 21:52:00,14.2,3.6,30.76,SSE,154,0.0,3.0,62,0.00,,,0.00,meteohub,2013-03-26 04:52:00,
2013-03-25 21:57:00,13.8,3.2,30.76,SSE,154,0.0,3.0,62,0.00,,,0.00,meteohub,2013-03-26 04:57:00,
2013-03-25 22:07:00,13.6,3.0,30.76,SSE,154,0.0,1.0,62,0.00,,,0.00,meteohub,2013-03-26 05:07:00,
2013-03-25 22:12:00,13.5,3.9,30.76,SSE,154,0.0,1.0,65,0.00,,,0.00,meteohub,2013-03-26 05:12:00,
2013-03-25 22:17:00,13.5,3.6,30.76,SSE,154,0.0,1.0,64,0.00,,,0.00,meteohub,2013-03-26 05:17:00,
2013-03-25 22:27:00,13.3,2.3,30.76,SSE,154,0.0,0.0,61,0.00,,,0.00,meteohub,2013-03-26 05:27:00,
2013-03-25 22:32:00,12.6,3.0,30.76,SSE,154,0.0,1.0,65,0.00,,,0.00,meteohub,2013-03-26 05:32:00,
2013-03-25 22:37:00,12.0,2.5,30.76,SSE,154,0.0,1.0,65,0.00,,,0.00,meteohub,2013-03-26 05:37:00,
2013-03-25 22:42:00,11.8,3.4,30.76,SSE,154,0.0,1.0,68,0.00,,,0.00,meteohub,2013-03-26 05:42:00,
2013-03-25 22:47:00,11.8,3.0,30.76,SSE,154,0.0,1.0,67,0.00,,,0.00,meteohub,2013-03-26 05:47:00,
2013-03-25 22:52:00,11.8,3.0,30.76,SSE,154,0.0,0.0,67,0.00,,,0.00,meteohub,2013-03-26 05:52:00,
2013-03-25 22:57:00,12.0,2.8,30.76,SSE,154,0.0,0.0,66,0.00,,,0.00,meteohub,2013-03-26 05:57:00,
2013-03-25 23:02:00,11.8,2.7,30.75,SSE,154,0.0,3.0,66,0.00,,,0.00,meteohub,2013-03-26 06:02:00,
2013-03-25 23:07:00,11.7,2.5,30.75,SSE,154,0.0,3.0,66,0.00,,,0.00,meteohub,2013-03-26 06:07:00,
2013-03-25 23:12:00,11.5,3.0,30.75,SSE,154,0.0,3.0,68,0.00,,,0.00,meteohub,2013-03-26 06:12:00,
2013-03-25 23:17:00,11.5,3.6,30.75,SSE,154,1.0,2.0,70,0.00,,,0.00,meteohub,2013-03-26 06:17:00,
2013-03-25 23:22:00,10.9,3.0,30.75,SSE,154,0.0,2.0,70,0.00,,,0.00,meteohub,2013-03-26 06:22:00,
2013-03-25 23:27:00,10.8,3.2,30.75,SSE,154,0.0,2.0,71,0.00,,,0.00,meteohub,2013-03-26 06:27:00,
2013-03-25 23:32:00,10.8,3.6,30.75,SSE,154,0.0,2.0,72,0.00,,,0.00,meteohub,2013-03-26 06:32:00,
2013-03-25 23:42:00,10.8,2.7,30.74,SSE,154,0.0,0.0,69,0.00,,,0.00,meteohub,2013-03-26 06:42:00,
2013-03-25 23:52:00,10.8,2.3,30.74,SSE,154,0.0,1.0,68,0.00,,,0.00,meteohub,2013-03-26 06:52:00,
2013-03-25 23:57:00,10.6,2.5,30.74,SSE,154,0.0,1.0,69,0.00,,,0.00,meteohub,2013-03-26 06:57:00,